Wind_Speed
26 25 24 24 23 21 17 17 19 22 25 26 26 26 26 25 25 25 25 25 25 24 22 22 22 21 22 22 21 22 23 22 21 21 20 20 19 20 19 20 20 20 20 20 20 20 19 17 16 16 16 15 14 13 13 13 13 13 12 12 11 11 11
26 28 28 26 23 19 17 20 22 22 24 25 26 26 24 25 26 26 26 26 26 25 24 24 23 22 22 22 21 23 25 24 23 22 21 21 19 19 20 20 21 22 22 22 21 20 19 18 17 17 17 16 16 15 15 15 16 15 14 14 13 12 12
25 30 30 28 26 23 21 23 24 23 23 24 26 25 24 25 28 28 27 27 27 27 26 25 24 23 23 23 23 24 25 25 24 23 23 22 19 19 20 22 22 23 22 22 21 20 20 19 18 18 18 17 17 17 17 17 17 17 16 15 14 14 13
27 30 31 30 29 26 25 27 27 25 25 26 26 26 25 26 27 28 28 27 27 26 26 25 25 24 25 25 24 25 26 26 25 24 24 23 20 20 21 23 23 23 22 22 21 21 20 19 19 19 19 18 18 18 18 18 18 18 17 17 16 15 14
31 33 33 30 29 28 27 29 28 25 26 27 28 27 27 27 28 28 27 27 27 26 26 26 27 27 27 26 25 26 27 27 25 24 24 23 21 21 22 22 23 22 22 22 22 21 20 20 20 19 19 19 18 19 19 19 19 19 18 18 17 16 15
32 33 33 30 29 29 29 30 28 25 26 28 28 28 28 28 28 29 28 28 28 28 28 29 30 29 28 27 26 27 27 26 25 24 24 23 22 22 22 22 22 22 22 22 23 22 21 20 20 20 20 19 19 19 19 20 20 19 19 19 18 17 16
31 31 30 31 33 32 31 31 30 27 27 29 30 30 30 29 29 30 29 28 28 29 29 31 33 30 28 28 28 30 29 26 26 26 25 23 23 23 23 22 21 22 22 23 23 22 21 21 20 20 20 21 21 21 20 20 20 20 20 19 18 17 17
32 30 28 29 33 34 32 32 32 30 30 32 33 32 32 32 30 30 29 28 29 29 29 31 32 31 30 30 30 32 30 27 28 27 25 24 24 23 23 22 21 22 22 23 23 22 22 21 21 21 21 22 22 21 21 21 21 21 21 20 20 19 18
33 30 28 27 29 32 33 32 32 32 32 34 36 35 33 33 32 30 29 29 29 30 29 30 31 32 32 32 31 31 30 30 29 27 26 25 24 23 23 22 21 22 22 23 22 22 22 22 22 22 22 22 22 22 21 21 21 22 22 22 21 20 20
32 30 28 27 28 31 32 32 32 33 33 34 37 37 35 33 33 32 30 29 29 30 30 29 30 33 34 33 32 31 32 31 30 28 26 26 24 23 23 23 22 22 22 22 22 22 22 22 23 23 23 23 23 22 22 21 21 23 23 23 22 21 21
31 30 29 28 29 30 31 32 32 33 33 34 36 38 36 34 33 32 32 31 30 31 31 30 31 33 34 34 33 32 32 31 30 29 28 27 24 23 24 24 23 22 22 22 22 22 22 22 23 24 24 24 23 23 23 22 22 23 24 24 23 23 23
30 31 31 30 30 31 32 33 33 33 33 33 35 38 37 35 33 32 32 32 32 32 32 31 31 31 33 34 33 32 32 31 30 30 29 27 24 23 26 25 24 23 23 23 23 22 23 23 23 24 24 25 25 24 24 23 23 23 24 24 24 24 24
29 30 30 31 31 32 34 35 34 32 31 31 34 36 36 34 33 32 32 32 32 32 32 31 31 30 32 33 32 32 33 32 31 30 29 27 24 24 27 27 25 24 24 24 24 23 23 23 23 24 25 25 25 25 25 25 24 24 24 24 25 25 24
25 27 29 30 30 32 35 36 34 32 30 29 31 34 35 33 31 31 32 32 31 31 30 30 30 31 31 32 31 32 33 33 32 31 30 28 25 26 28 28 26 26 25 25 25 24 24 24 24 24 25 25 26 26 27 27 25 24 24 25 25 25 25
22 23 26 28 27 28 31 33 34 32 30 29 31 33 34 33 31 30 32 32 30 29 28 28 28 29 30 30 30 31 32 33 32 32 31 29 27 27 28 29 28 27 26 26 26 25 25 25 25 25 25 26 27 27 28 28 26 25 25 25 26 26 26
22 21 22 23 22 21 24 28 31 31 29 29 30 31 34 34 32 30 31 31 29 28 28 28 28 28 29 30 31 31 32 33 33 33 32 31 30 28 28 29 29 28 28 28 27 26 26 25 25 26 26 27 27 28 29 29 27 26 25 26 26 27 26
20 19 20 20 19 18 21 25 28 29 28 27 27 28 30 32 32 30 29 29 29 28 28 28 28 29 30 31 31 31 32 34 34 34 33 32 31 29 29 29 29 29 28 28 28 27 26 26 26 27 26 27 28 29 30 30 28 27 26 26 26 26 26
18 17 18 18 18 18 19 22 24 25 25 25 25 26 27 28 29 30 29 29 29 28 27 27 27 28 29 31 31 31 32 33 34 34 33 32 31 30 31 30 29 29 29 29 28 28 27 26 26 27 27 28 29 29 30 30 29 28 27 26 26 26 25
19 18 17 17 18 19 19 21 23 25 26 26 26 26 26 25 27 29 29 29 29 29 28 28 28 28 28 29 30 31 31 33 34 33 32 31 30 31 33 32 30 29 29 29 29 28 27 27 27 27 28 28 28 29 29 29 29 27 26 26 26 26 26
21 20 20 19 19 19 20 21 23 26 28 28 27 26 27 27 26 27 28 28 28 29 30 30 31 30 30 29 29 30 30 32 33 32 31 29 29 31 34 33 31 31 31 30 30 29 29 28 27 28 28 28 28 29 29 29 27 25 24 25 25 24 23
21 21 22 22 21 21 21 22 23 25 28 29 28 27 28 28 28 28 27 27 27 28 30 31 33 32 31 30 29 29 30 31 32 32 31 29 27 29 33 34 32 32 32 32 31 31 30 28 27 28 28 28 28 29 29 29 27 25 25 27 26 24 23
21 21 22 22 22 22 23 24 24 25 26 27 28 28 29 30 31 31 30 29 28 28 29 31 33 33 32 31 30 30 30 31 32 31 31 29 28 30 34 35 34 33 34 33 33 32 29 28 28 29 28 28 28 28 29 29 28 27 28 29 28 27 26
22 22 23 23 23 22 23 25 26 27 27 28 28 29 29 30 31 33 34 33 32 31 29 30 32 33 34 33 32 32 32 32 32 32 31 29 29 33 36 35 33 33 34 34 33 31 29 29 29 29 29 28 27 27 28 29 28 28 28 28 29 28 27
24 24 24 24 24 23 24 24 26 28 30 30 30 29 30 31 32 34 34 34 34 34 32 31 32 33 34 34 33 33 33 32 32 33 32 30 30 34 37 36 34 33 34 34 33 31 30 30 30 30 30 30 28 27 27 28 28 28 28 28 29 29 29
26 26 25 25 24 25 25 25 26 28 30 32 32 30 30 32 33 34 34 34 34 35 34 34 34 33 33 34 34 34 33 32 31 32 32 31 32 34 36 38 38 37 35 34 33 32 31 31 30 31 31 30 30 29 29 28 28 28 29 28 27 29 30
27 27 26 25 25 25 26 26 27 27 29 32 33 32 32 33 34 34 34 34 34 35 35 36 35 33 33 34 35 34 31 28 29 31 33 35 36 37 38 39 40 38 35 34 33 33 32 32 31 31 31 31 30 30 29 29 29 29 29 27 26 29 31
28 28 28 27 26 26 26 27 27 27 28 31 34 34 34 35 35 35 35 35 36 36 36 37 36 34 33 34 36 35 30 26 26 29 34 38 40 40 40 40 40 38 35 34 34 33 33 33 32 32 31 31 30 30 29 29 29 29 29 28 28 30 31
29 29 28 28 28 27 27 27 26 26 27 30 34 35 36 35 35 35 35 35 35 35 34 35 35 34 33 34 36 35 31 29 27 28 33 38 40 39 39 39 39 37 35 35 35 34 34 34 33 32 31 31 30 30 30 30 30 30 30 30 30 32 32
31 29 28 29 29 29 28 27 26 25 26 30 34 35 34 34 34 34 34 34 33 33 32 33 34 33 33 34 36 36 34 33 31 29 32 37 38 37 37 37 36 36 36 36 36 35 35 35 34 32 31 31 31 31 31 31 32 32 32 32 32 32 33
31 30 29 29 29 29 28 27 26 25 25 28 32 33 33 32 31 33 34 34 34 32 31 34 35 34 33 33 36 39 38 36 34 32 32 35 34 34 34 34 35 36 37 37 36 35 35 35 34 33 32 32 32 32 32 32 32 33 33 33 33 33 33
31 30 29 29 28 28 27 26 25 25 25 27 28 29 30 30 31 35 35 33 34 34 35 37 36 33 33 34 37 39 38 34 33 32 32 33 32 32 32 34 35 37 37 36 35 35 35 35 34 33 33 33 33 33 33 33 34 34 34 33 33 33 32
31 31 29 28 28 28 26 25 24 23 22 24 25 26 28 28 29 32 32 31 34 36 37 36 34 34 33 34 36 37 34 31 31 32 33 33 32 31 32 34 35 36 36 35 34 34 34 35 34 34 34 34 34 34 34 34 35 35 34 34 33 33 32
32 32 31 28 27 27 27 25 25 22 19 20 22 24 26 26 26 27 31 35 37 36 36 34 33 33 33 33 35 36 33 31 31 32 32 31 31 31 31 33 34 35 35 35 34 34 34 34 34 35 35 35 35 35 35 36 36 36 35 34 34 34 34
33 34 33 31 28 27 26 26 26 26 24 22 20 20 19 20 23 27 33 38 39 38 37 35 33 34 36 35 34 33 31 30 31 31 31 30 30 30 31 32 34 35 35 34 34 34 34 35 35 35 36 36 37 37 37 37 38 37 36 36 36 36 36
34 34 35 34 31 28 26 26 26 27 27 25 22 20 17 17 21 29 34 38 38 37 38 38 39 41 39 32 28 27 28 29 30 30 31 30 30 31 32 34 35 35 34 34 34 34 34 34 35 36 36 36 36 36 36 36 37 37 37 36 37 37 38
35 35 35 35 34 32 29 27 26 26 26 23 21 21 18 16 20 27 34 38 38 38 40 41 42 41 34 25 26 28 29 29 29 30 30 31 31 32 33 35 35 34 34 35 35 35 35 35 36 37 37 35 34 33 33 34 34 35 36 36 37 37 38
37 36 35 36 36 35 33 30 27 26 26 23 21 21 19 16 17 22 29 35 37 37 38 38 38 36 32 28 31 33 33 32 31 31 31 32 33 33 34 34 31 31 33 35 35 36 36 37 38 38 36 34 33 33 33 34 35 36 36 37 37 38 38
Wind_Direction
264 259 255 253 255 258 252 248 250 244 241 242 242 244 245 242 239 239 238 237 236 234 235 236 235 237 240 242 244 247 249 246 243 242 242 242 242 244 246 246 247 248 248 248 249 251 254 256 256 255 256 257 258 258 257 258 259 262 264 264 262 259 259
262 260 255 250 252 254 247 244 246 243 241 244 246 246 247 244 240 236 234 234 233 232 233 235 236 237 240 242 240 243 248 247 244 242 241 241 242 246 248 247 247 247 248 248 249 251 254 255 253 252 253 252 252 254 255 255 257 261 262 262 261 260 261
251 255 254 251 248 244 240 243 247 245 241 242 244 243 241 241 239 234 232 231 232 233 233 234 237 239 241 241 239 243 249 249 245 242 241 240 240 244 247 246 246 248 249 250 251 252 253 254 253 252 253 252 251 253 254 255 257 260 262 263 263 263 262
242 246 249 249 246 242 237 236 240 241 239 237 238 239 239 239 241 240 237 235 235 237 237 238 239 240 241 241 239 243 248 249 246 243 243 243 240 241 244 245 246 248 250 251 252 253 254 255 254 253 253 253 253 254 256 256 258 259 261 262 262 262 262
241 242 247 250 251 252 247 239 238 237 235 234 234 238 239 238 238 240 240 239 238 241 242 242 242 241 240 240 238 240 244 246 245 243 244 244 242 241 243 244 247 249 250 251 252 253 254 254 254 254 255 255 255 255 256 257 258 259 260 261 262 263 263
245 247 254 255 254 258 258 252 249 244 237 236 235 236 239 239 238 237 236 237 238 241 243 243 242 240 239 240 239 239 241 241 242 242 243 244 244 243 243 243 245 247 249 251 253 254 254 254 255 256 257 257 256 256 255 255 257 259 260 262 264 264 264
249 252 259 258 252 253 254 252 252 248 242 241 239 238 239 240 241 241 239 237 237 238 241 244 245 243 241 242 241 240 240 239 237 238 240 242 242 243 243 242 243 245 248 251 254 255 256 256 257 258 258 257 256 256 255 255 257 260 261 261 261 262 262
253 254 258 260 257 254 251 249 249 248 246 244 240 239 239 238 240 243 242 240 238 238 239 242 246 247 244 243 242 241 242 241 240 238 238 239 239 241 242 242 243 245 248 251 253 255 256 257 258 259 259 258 257 257 256 256 258 260 261 261 261 262 263
257 256 257 259 261 259 256 253 251 250 250 247 242 240 240 238 238 241 243 243 242 242 241 240 243 246 244 242 242 243 242 242 242 240 239 238 237 239 242 242 243 245 248 250 252 254 255 257 258 259 259 259 258 258 256 256 258 260 261 261 263 264 265
258 259 257 256 257 259 260 258 254 253 252 250 246 243 242 241 240 242 243 243 243 244 244 242 240 242 243 242 242 243 242 240 239 237 237 238 237 239 242 243 243 245 247 249 251 252 254 256 258 259 259 260 259 257 256 256 258 261 263 264 264 266 266
260 261 258 254 252 254 257 256 255 256 256 253 250 247 245 243 242 243 244 244 243 243 244 243 240 241 243 241 240 241 241 240 238 236 235 235 235 239 243 243 244 244 246 248 250 251 252 254 257 259 260 260 259 258 257 257 259 262 264 265 266 266 266
261 261 260 256 252 251 253 252 252 254 256 256 253 249 247 244 244 245 246 246 245 244 244 243 241 240 243 241 239 240 240 239 238 236 235 234 232 237 242 242 243 244 245 248 249 250 251 253 256 259 260 261 260 259 259 259 260 261 264 266 266 266 266
265 263 262 260 257 254 254 252 250 249 251 255 255 251 248 246 246 247 248 247 247 246 245 244 240 238 240 240 238 239 239 239 239 237 237 235 229 233 240 241 242 245 245 246 248 248 249 251 253 256 258 260 261 261 261 261 261 261 263 264 265 266 266
272 269 264 262 261 258 253 250 248 247 246 250 252 248 245 246 248 249 248 247 247 248 248 247 243 237 236 237 237 238 240 240 239 238 238 235 227 229 238 241 242 245 246 246 246 246 247 249 251 253 256 259 261 262 263 262 261 261 262 263 265 266 266
277 276 268 263 263 259 250 245 247 247 246 248 248 244 244 247 249 249 247 246 248 250 249 247 243 237 234 236 237 238 239 239 239 238 236 232 227 227 235 240 243 244 245 245 245 244 245 247 249 252 255 258 260 262 262 263 262 262 262 263 265 266 267
277 280 275 267 263 258 248 243 246 249 250 249 247 245 246 248 248 246 245 244 246 249 247 243 240 237 236 237 238 238 238 239 240 239 235 230 227 227 232 238 241 242 243 244 244 244 244 246 249 252 254 257 260 261 263 263 263 262 262 263 265 267 269
275 278 279 275 268 259 251 247 248 250 250 248 247 249 250 250 246 242 241 242 244 247 246 243 241 239 238 239 240 240 240 240 240 239 235 231 229 230 233 236 239 242 243 244 244 244 245 246 249 253 255 258 260 262 264 265 264 263 263 263 265 267 269
277 277 278 279 277 270 262 255 251 248 245 245 249 253 254 251 244 239 240 241 242 243 244 245 244 242 241 242 242 242 243 242 239 236 235 231 228 231 235 237 239 241 243 244 244 244 245 247 250 254 256 258 261 263 265 265 265 264 263 264 266 267 268
280 279 277 275 276 275 271 264 256 250 247 248 250 251 252 250 243 239 240 241 241 242 243 246 247 246 245 245 244 244 243 239 234 232 234 232 228 232 238 240 240 240 241 242 243 244 246 247 250 252 255 257 260 262 263 263 263 264 266 266 264 263 265
283 282 280 277 275 273 271 267 262 256 252 250 249 251 251 248 244 241 240 240 242 242 243 246 248 248 248 246 244 242 240 235 231 230 232 232 230 236 243 243 240 239 240 241 242 243 245 246 249 251 253 255 257 259 259 260 260 262 264 262 260 261 265
285 284 282 280 277 274 271 268 264 260 256 251 248 248 248 247 247 246 244 243 244 243 243 245 247 247 246 243 240 239 236 233 232 233 235 235 233 238 245 245 240 238 239 240 241 243 245 248 250 251 251 252 254 255 256 257 257 256 255 257 260 264 266
288 286 284 282 279 276 274 271 267 263 259 254 248 246 246 247 247 249 249 249 249 247 245 246 246 245 243 239 236 236 235 233 234 235 236 235 232 236 243 245 242 239 238 239 240 242 246 248 249 250 251 250 251 252 253 255 256 255 254 258 262 264 264
290 289 288 286 283 280 276 273 271 267 262 257 252 248 248 248 249 251 252 252 252 251 250 249 247 244 240 237 236 235 233 233 235 234 231 230 234 241 245 245 241 238 238 239 240 242 245 247 248 250 251 250 251 253 254 254 255 256 257 259 261 262 263
290 289 289 289 288 286 281 275 272 269 265 261 256 252 250 249 250 252 254 254 253 251 250 250 248 244 238 235 237 235 229 229 233 233 230 227 232 240 243 241 240 241 240 240 241 242 244 246 247 249 249 249 250 253 254 254 255 257 258 260 263 265 266
290 289 289 290 289 288 286 281 274 268 264 261 259 255 251 250 251 253 255 254 252 251 249 248 247 245 238 234 235 232 226 227 233 235 235 232 232 238 243 242 243 244 243 242 241 242 244 246 246 247 248 248 249 251 252 254 255 257 258 260 264 268 268
289 289 289 289 288 287 285 283 279 271 263 258 256 254 252 251 252 253 254 254 251 249 247 245 245 243 237 234 234 229 226 232 236 235 236 237 239 245 249 248 246 244 242 241 242 242 244 246 246 246 247 248 249 251 253 254 255 257 258 259 261 264 266
288 289 289 288 286 286 284 282 281 277 267 257 252 250 249 249 250 251 253 253 250 248 245 244 244 241 236 235 232 227 228 238 242 240 239 239 241 244 250 253 249 243 241 242 243 244 245 246 245 244 244 246 248 250 252 255 256 257 258 258 257 259 263
286 287 289 289 288 287 287 285 283 279 271 258 251 249 248 248 249 249 251 253 252 247 243 243 242 237 235 235 230 228 235 244 249 248 241 237 239 242 248 252 248 242 242 243 243 244 245 245 244 243 243 244 247 250 252 255 256 257 258 258 256 257 259
286 286 286 288 288 289 290 289 286 281 270 258 253 250 248 248 249 249 250 251 247 241 238 239 239 234 234 235 230 230 238 247 253 255 244 237 239 244 248 249 243 240 241 242 243 245 245 244 242 242 243 245 247 250 253 255 257 258 259 258 257 257 258
284 285 285 286 287 289 292 292 289 283 271 259 253 252 251 250 249 249 248 239 231 230 230 232 235 236 237 236 231 231 237 245 253 255 245 239 242 246 247 244 240 238 240 242 243 244 243 242 242 242 244 246 249 251 253 255 257 258 259 260 260 261 262
281 283 284 284 285 287 289 292 291 284 271 261 256 254 254 251 247 248 245 228 216 217 221 224 231 239 243 240 233 231 236 244 250 249 243 241 244 246 246 244 241 241 242 243 243 241 240 241 242 244 247 250 252 254 255 257 258 259 259 260 260 262 262
279 278 279 281 283 284 284 286 290 287 274 264 260 257 255 252 246 244 237 221 212 214 218 225 236 243 243 239 233 232 237 245 250 247 243 244 245 245 246 246 245 245 245 244 242 240 240 242 243 246 249 252 254 256 257 258 259 259 259 259 259 260 260
277 276 275 275 278 281 281 281 283 284 279 267 260 256 253 250 249 243 230 219 215 216 218 225 235 236 231 228 229 232 238 247 251 247 244 245 245 245 246 246 246 247 246 243 241 241 242 244 246 249 252 254 256 257 257 258 258 258 258 258 258 258 256
275 275 274 272 270 273 278 280 279 278 279 277 270 262 256 251 248 242 229 217 213 212 214 216 220 220 217 219 229 237 242 247 248 244 243 244 245 246 247 247 246 245 243 241 240 241 242 245 247 250 254 256 258 259 258 258 258 258 257 256 255 255 254
272 272 272 271 269 267 269 275 278 278 279 282 280 273 267 260 247 233 221 214 210 208 207 208 210 211 212 223 242 250 249 248 245 241 241 243 245 247 248 248 246 243 241 241 241 241 243 246 249 252 254 256 257 258 258 257 257 257 255 254 254 255 256
271 270 269 269 269 266 265 267 273 279 281 282 281 273 265 260 249 233 221 218 216 211 206 207 209 210 215 237 260 259 252 249 246 243 243 243 244 247 249 248 246 243 242 242 243 244 246 248 250 251 252 253 254 256 257 257 257 257 257 257 257 258 259
270 269 268 267 266 266 265 264 266 273 278 278 277 272 262 254 250 242 232 226 223 218 215 216 217 218 227 250 264 260 253 250 247 246 246 245 246 248 248 246 243 243 244 244 245 248 250 252 253 252 252 252 253 255 256 257 257 259 260 261 262 263 263
Height
5796 5795 5792 5791 5790 5790 5791 5792 5791 5791 5791 5791 5791 5791 5792 5794 5796 5797 5797 5798 5799 5800 5801 5802 5803 5804 5806 5807 5808 5808 5808 5809 5810 5810 5812 5813 5813 5813 5814 5814 5814 5814 5815 5816 5816 5816 5817 5817 5817 5817 5818 5818 5818 5819 5819 5819 5820 5820 5820 5820 5820 5820 5820
5793 5792 5789 5788 5788 5789 5790 5789 5787 5787 5788 5789 5789 5790 5792 5793 5793 5794 5794 5795 5796 5797 5798 5800 5801 5802 5802 5804 5805 5805 5805 5806 5807 5808 5809 5810 5811 5811 5812 5812 5812 5813 5813 5814 5815 5815 5815 5815 5815 5815 5816 5816 5817 5817 5817 5817 5818 5818 5819 5819 5819 5819 5819
5788 5787 5786 5785 5785 5786 5786 5786 5785 5785 5785 5786 5786 5786 5788 5789 5789 5789 5791 5792 5793 5794 5796 5797 5799 5800 5799 5800 5802 5802 5803 5804 5805 5806 5807 5807 5808 5809 5810 5810 5811 5811 5812 5812 5813 5813 5813 5813 5813 5814 5814 5814 5815 5815 5815 5815 5816 5817 5817 5817 5818 5818 5818
5783 5782 5782 5782 5782 5783 5783 5782 5782 5782 5781 5781 5782 5782 5784 5785 5786 5787 5789 5790 5791 5792 5794 5795 5797 5798 5797 5797 5799 5800 5801 5801 5802 5803 5804 5805 5806 5806 5807 5808 5809 5810 5810 5811 5811 5811 5811 5811 5812 5812 5812 5813 5813 5813 5814 5814 5814 5815 5815 5816 5816 5816 5816
5778 5777 5777 5778 5779 5780 5780 5780 5779 5779 5778 5777 5778 5779 5780 5781 5782 5783 5785 5786 5789 5790 5792 5793 5794 5794 5795 5795 5796 5797 5797 5798 5799 5801 5802 5802 5803 5804 5805 5806 5807 5808 5808 5809 5809 5809 5809 5809 5810 5810 5811 5811 5811 5811 5812 5812 5813 5813 5814 5814 5814 5815 5815
5773 5773 5774 5775 5776 5776 5777 5778 5778 5778 5777 5776 5775 5776 5777 5778 5778 5779 5780 5782 5784 5786 5787 5788 5788 5790 5792 5793 5794 5794 5794 5795 5797 5797 5798 5799 5800 5801 5802 5803 5804 5805 5806 5807 5807 5807 5807 5807 5808 5808 5809 5809 5809 5809 5810 5810 5811 5811 5812 5812 5813 5813 5813
5769 5769 5771 5771 5771 5772 5773 5774 5774 5775 5774 5773 5772 5772 5773 5775 5776 5776 5777 5778 5780 5781 5783 5783 5784 5787 5790 5791 5791 5791 5791 5792 5793 5793 5794 5796 5797 5798 5799 5800 5802 5803 5804 5805 5805 5805 5805 5805 5806 5806 5807 5807 5807 5808 5808 5809 5809 5810 5810 5810 5811 5811 5811
5766 5765 5766 5767 5768 5768 5769 5769 5770 5770 5770 5769 5769 5769 5769 5771 5773 5773 5774 5775 5776 5777 5779 5780 5781 5785 5787 5787 5787 5788 5789 5790 5790 5790 5791 5792 5794 5795 5796 5797 5799 5800 5801 5802 5803 5803 5803 5803 5804 5804 5804 5805 5805 5806 5806 5807 5808 5808 5808 5808 5809 5809 5810
5762 5762 5762 5763 5764 5765 5766 5766 5766 5766 5766 5765 5766 5767 5767 5768 5769 5770 5771 5772 5773 5774 5775 5777 5779 5781 5782 5784 5785 5785 5786 5787 5787 5788 5790 5790 5791 5792 5793 5795 5796 5797 5799 5800 5800 5801 5801 5801 5801 5802 5802 5803 5803 5804 5804 5805 5806 5806 5806 5806 5807 5807 5808
5759 5759 5759 5759 5760 5761 5762 5763 5763 5763 5762 5762 5763 5765 5766 5765 5766 5767 5768 5769 5770 5771 5772 5774 5775 5776 5778 5780 5781 5782 5782 5783 5784 5786 5787 5787 5788 5789 5791 5792 5793 5794 5796 5797 5797 5798 5798 5798 5799 5799 5800 5800 5801 5801 5802 5803 5804 5804 5804 5804 5805 5805 5805
5756 5755 5755 5755 5756 5758 5758 5759 5759 5759 5759 5760 5761 5762 5764 5764 5763 5763 5764 5766 5767 5768 5769 5770 5771 5772 5774 5776 5777 5778 5779 5780 5782 5783 5783 5784 5785 5786 5787 5789 5790 5791 5792 5793 5794 5795 5795 5796 5796 5796 5797 5798 5798 5798 5799 5801 5802 5802 5801 5802 5802 5803 5803
5752 5752 5751 5751 5753 5754 5754 5755 5756 5756 5756 5757 5758 5759 5761 5761 5760 5760 5761 5762 5764 5765 5766 5766 5767 5768 5770 5771 5773 5775 5776 5777 5779 5780 5779 5780 5782 5784 5785 5785 5787 5788 5789 5791 5792 5792 5792 5793 5793 5794 5794 5795 5795 5795 5797 5798 5799 5799 5799 5799 5799 5800 5800
5748 5748 5748 5748 5749 5750 5750 5751 5752 5753 5753 5754 5754 5755 5757 5758 5758 5757 5757 5759 5760 5761 5762 5763 5764 5765 5766 5767 5770 5771 5773 5774 5776 5777 5777 5777 5780 5782 5783 5782 5784 5785 5786 5788 5789 5789 5790 5790 5791 5791 5792 5792 5792 5793 5793 5795 5796 5797 5797 5797 5797 5797 5797
5745 5744 5744 5744 5744 5745 5746 5746 5747 5749 5750 5750 5750 5751 5753 5755 5755 5754 5754 5756 5757 5758 5759 5760 5761 5762 5762 5764 5766 5768 5770 5771 5772 5774 5775 5775 5776 5778 5779 5780 5781 5782 5784 5785 5786 5787 5788 5788 5788 5789 5789 5789 5789 5790 5790 5791 5793 5794 5794 5794 5794 5794 5795
5743 5742 5741 5740 5740 5740 5741 5742 5743 5745 5747 5747 5747 5748 5749 5751 5751 5751 5751 5752 5754 5755 5756 5757 5758 5758 5759 5761 5763 5765 5766 5768 5769 5770 5773 5773 5772 5773 5776 5777 5778 5780 5781 5782 5783 5784 5785 5785 5785 5785 5786 5786 5786 5787 5787 5788 5789 5791 5791 5792 5792 5792 5792
5741 5740 5738 5737 5737 5737 5738 5740 5740 5741 5742 5742 5743 5744 5745 5746 5747 5748 5748 5749 5751 5752 5753 5754 5755 5756 5757 5758 5760 5762 5763 5764 5765 5767 5769 5769 5768 5769 5772 5774 5775 5777 5778 5779 5780 5782 5782 5782 5782 5782 5782 5783 5783 5784 5784 5785 5786 5788 5789 5789 5789 5789 5789
5739 5738 5736 5735 5735 5735 5736 5737 5737 5737 5738 5738 5739 5740 5741 5742 5743 5745 5746 5746 5748 5749 5750 5750 5752 5753 5754 5756 5757 5759 5759 5760 5762 5763 5765 5766 5766 5767 5768 5770 5772 5774 5775 5777 5778 5779 5779 5780 5780 5780 5780 5780 5780 5780 5781 5782 5783 5785 5785 5786 5786 5786 5787
5737 5736 5735 5734 5733 5733 5734 5734 5734 5734 5735 5735 5736 5736 5737 5738 5740 5742 5743 5743 5744 5745 5746 5747 5749 5750 5751 5752 5754 5755 5755 5757 5758 5759 5761 5762 5763 5764 5765 5767 5769 5771 5772 5774 5775 5776 5776 5777 5777 5777 5777 5777 5777 5778 5778 5779 5780 5781 5782 5782 5783 5783 5783
5734 5734 5734 5733 5732 5732 5732 5732 5731 5731 5732 5733 5733 5734 5735 5736 5737 5738 5739 5740 5740 5742 5743 5744 5745 5746 5747 5748 5750 5751 5752 5753 5754 5756 5758 5759 5759 5760 5761 5763 5765 5767 5769 5770 5771 5772 5773 5774 5774 5774 5774 5774 5775 5775 5775 5776 5777 5778 5779 5779 5779 5779 5779
5731 5730 5731 5731 5731 5730 5730 5729 5729 5729 5729 5730 5731 5732 5732 5733 5734 5735 5736 5736 5737 5738 5739 5741 5741 5743 5744 5744 5746 5747 5748 5749 5750 5752 5755 5755 5755 5756 5757 5759 5762 5763 5765 5767 5768 5769 5769 5770 5770 5770 5771 5771 5772 5772 5772 5772 5774 5775 5775 5774 5774 5775 5776
5728 5727 5727 5727 5728 5727 5727 5727 5726 5726 5726 5727 5728 5729 5729 5730 5731 5732 5733 5734 5734 5735 5736 5737 5738 5739 5740 5740 5742 5743 5744 5746 5747 5749 5751 5752 5752 5752 5753 5755 5757 5759 5761 5763 5764 5764 5765 5766 5766 5766 5767 5768 5768 5768 5769 5769 5771 5772 5771 5769 5770 5772 5773
5725 5724 5724 5724 5724 5724 5724 5723 5723 5723 5723 5723 5724 5725 5726 5727 5727 5728 5729 5730 5731 5732 5733 5733 5734 5734 5735 5737 5738 5740 5742 5743 5744 5745 5748 5749 5749 5750 5750 5751 5752 5755 5757 5758 5759 5760 5762 5762 5762 5762 5763 5763 5763 5764 5765 5766 5766 5767 5767 5767 5768 5769 5769
5722 5721 5721 5720 5720 5721 5721 5720 5720 5719 5719 5719 5720 5721 5722 5722 5723 5724 5725 5726 5727 5728 5729 5730 5730 5731 5732 5733 5734 5736 5738 5739 5740 5742 5744 5744 5745 5746 5746 5747 5748 5750 5752 5754 5755 5756 5758 5758 5758 5759 5760 5760 5760 5761 5761 5762 5763 5763 5764 5764 5764 5765 5766
5718 5718 5717 5717 5717 5716 5716 5716 5716 5715 5715 5714 5715 5717 5717 5718 5718 5719 5720 5722 5723 5724 5725 5725 5725 5727 5728 5729 5731 5732 5734 5735 5736 5738 5739 5740 5740 5741 5741 5742 5744 5746 5747 5749 5751 5752 5753 5754 5755 5755 5756 5756 5757 5757 5758 5758 5759 5759 5760 5761 5761 5761 5762
5715 5715 5714 5714 5713 5712 5712 5711 5711 5711 5711 5710 5710 5711 5712 5713 5714 5715 5716 5717 5718 5719 5720 5720 5721 5722 5724 5726 5727 5728 5730 5731 5732 5734 5735 5735 5736 5736 5737 5738 5740 5742 5743 5745 5746 5748 5749 5750 5751 5751 5752 5753 5754 5754 5755 5755 5756 5756 5756 5758 5759 5758 5758
5712 5711 5711 5711 5710 5709 5707 5706 5706 5707 5707 5706 5706 5707 5707 5708 5709 5710 5712 5713 5713 5714 5715 5715 5717 5718 5720 5722 5723 5724 5726 5728 5729 5730 5731 5731 5732 5733 5734 5735 5736 5738 5739 5741 5742 5743 5744 5746 5747 5748 5748 5749 5750 5750 5751 5752 5752 5753 5753 5755 5757 5755 5753
5709 5708 5708 5707 5706 5705 5703 5702 5702 5702 5702 5702 5702 5702 5703 5703 5704 5705 5707 5708 5708 5709 5710 5711 5712 5714 5716 5717 5719 5720 5722 5723 5725 5726 5727 5728 5729 5730 5730 5731 5732 5733 5735 5737 5738 5739 5740 5741 5742 5743 5744 5745 5745 5746 5747 5748 5748 5749 5750 5751 5752 5751 5750
5706 5705 5704 5703 5702 5701 5699 5698 5698 5698 5698 5698 5698 5698 5698 5699 5700 5701 5702 5703 5704 5704 5705 5706 5708 5710 5712 5713 5715 5716 5717 5718 5720 5721 5722 5723 5724 5725 5726 5727 5728 5729 5731 5733 5734 5735 5736 5737 5738 5739 5740 5741 5741 5742 5743 5744 5744 5745 5746 5747 5748 5747 5747
5702 5702 5701 5700 5698 5697 5696 5695 5694 5693 5693 5693 5693 5694 5694 5695 5696 5697 5698 5698 5699 5700 5701 5702 5703 5705 5707 5709 5711 5712 5713 5714 5715 5716 5717 5718 5719 5721 5722 5722 5723 5725 5727 5728 5730 5731 5732 5733 5734 5735 5736 5737 5737 5738 5739 5739 5740 5741 5742 5742 5743 5743 5743
5698 5698 5698 5697 5695 5694 5692 5691 5690 5689 5689 5689 5689 5690 5691 5692 5692 5692 5693 5693 5694 5696 5697 5697 5698 5701 5703 5705 5706 5708 5709 5710 5711 5712 5713 5714 5715 5716 5717 5718 5720 5721 5723 5724 5725 5727 5728 5729 5730 5731 5732 5732 5733 5734 5734 5735 5736 5737 5737 5738 5738 5738 5738
5695 5694 5694 5694 5692 5691 5690 5688 5686 5685 5685 5685 5686 5687 5687 5688 5688 5688 5688 5689 5690 5691 5692 5693 5694 5696 5698 5700 5701 5703 5704 5706 5707 5708 5709 5710 5711 5712 5713 5714 5716 5717 5719 5720 5721 5722 5724 5725 5726 5727 5728 5728 5729 5729 5730 5731 5731 5732 5732 5733 5734 5734 5734
5691 5691 5691 5690 5689 5688 5688 5686 5684 5682 5682 5682 5683 5683 5683 5684 5684 5683 5684 5685 5685 5685 5687 5689 5690 5692 5694 5695 5697 5698 5700 5701 5702 5703 5704 5705 5707 5708 5709 5711 5712 5713 5714 5715 5717 5718 5719 5720 5722 5723 5723 5724 5724 5725 5726 5726 5726 5727 5728 5728 5729 5729 5729
5686 5686 5687 5687 5687 5686 5684 5684 5682 5681 5680 5679 5679 5679 5679 5679 5679 5679 5680 5680 5680 5682 5684 5685 5686 5688 5689 5690 5691 5693 5695 5697 5698 5699 5700 5701 5702 5703 5705 5706 5707 5709 5709 5711 5712 5714 5715 5716 5717 5718 5718 5719 5719 5720 5721 5721 5721 5722 5723 5724 5724 5724 5725
5682 5682 5682 5683 5683 5683 5682 5681 5680 5678 5677 5677 5676 5676 5675 5675 5675 5675 5675 5676 5677 5678 5679 5680 5682 5683 5684 5685 5687 5689 5691 5692 5693 5694 5695 5696 5698 5699 5700 5702 5703 5704 5705 5706 5708 5709 5711 5711 5712 5713 5714 5714 5714 5715 5716 5716 5717 5718 5719 5719 5719 5719 5720
5678 5677 5677 5678 5678 5679 5678 5678 5677 5675 5674 5674 5674 5673 5672 5672 5672 5672 5672 5673 5674 5674 5675 5675 5676 5678 5680 5683 5685 5686 5687 5688 5689 5690 5691 5692 5694 5695 5696 5698 5698 5699 5700 5702 5703 5705 5706 5707 5707 5708 5708 5709 5710 5710 5711 5711 5712 5713 5713 5714 5714 5714 5714
5673 5673 5673 5673 5673 5673 5674 5674 5674 5673 5672 5671 5671 5671 5670 5670 5670 5670 5671 5671 5672 5672 5672 5672 5672 5674 5677 5680 5682 5682 5683 5684 5685 5686 5687 5688 5689 5691 5692 5693 5694 5695 5696 5697 5699 5700 5701 5702 5702 5702 5703 5704 5705 5706 5706 5707 5707 5708 5708 5709 5709 5709 5709
5667 5668 5668 5668 5668 5668 5669 5669 5670 5670 5669 5668 5668 5668 5668 5668 5668 5668 5669 5670 5671 5671 5672 5672 5673 5674 5676 5677 5678 5679 5680 5680 5681 5682 5683 5684 5685 5687 5688 5689 5690 5691 5692 5692 5694 5695 5696 5696 5696 5697 5699 5700 5701 5701 5702 5702 5703 5703 5703 5704 5704 5704 5704